Weather reports worldwide

Advertisment
St-Sauveur, France (7300): temperature & dewpoint: 01.08.2020 02:00:00 - 07.08.2020 02:00:00 (CEST)St-Sauveur, France (7300): wind speed & gusts: 01.08.2020 02:00:00 - 07.08.2020 02:00:00 (CEST)St-Sauveur, France (7300): wind direction: 01.08.2020 02:00:00 - 07.08.2020 02:00:00 (CEST)St-Sauveur, France (7300): reduced air pressure: 01.08.2020 02:00:00 - 07.08.2020 02:00:00 (CEST)St-Sauveur, France (7300): visibility: 01.08.2020 02:00:00 - 07.08.2020 02:00:00 (CEST)St-Sauveur, France (7300): precipitation: 01.08.2020 02:00:00 - 07.08.2020 02:00:00 (CEST)
Date & Time tt [°C] td [°C] ff [km/h] ff [kn] fx [km/h] fx [kn] dd ppp [hPa] vv [km] rr [mm]
07.08.2020 02:00:00 21,4 12,5 19 10 26 14 N 1014,9 25 0,0
07.08.2020 01:00:00 21,7 11,1 21 11 26 14 N 1015,0 - 0,0
07.08.2020 00:00:00 22,5 10,0 19 10 29 16 N 1015,2 - 0,0
06.08.2020 23:00:00 22,9 9,3 19 11 29 16 N 1015,3 - 0,0
06.08.2020 22:00:00 22,7 10,8 19 10 32 17 N 1015,0 - 0,0
06.08.2020 21:00:00 24,3 11,3 19 10 29 16 N 1014,9 - 0,0
06.08.2020 20:00:00 26,2 11,5 12 7 25 14 N 1014,9 - 0,0
06.08.2020 19:00:00 28,2 10,4 15 8 22 12 N 1015,0 - 0,0
06.08.2020 18:00:00 29,4 10,5 11 6 20 11 N 1015,3 - 0,0
06.08.2020 17:00:00 29,3 13,9 11 6 18 10 N 1015,6 - 0,0
06.08.2020 16:00:00 31,2 10,5 5 3 14 8 SW 1015,8 - 0,0
06.08.2020 15:00:00 29,8 8,2 7 4 16 8 SE 1016,1 - 0,0
06.08.2020 14:00:00 28,6 10,3 10 5 17 9 SSE 1016,4 - 0,0
06.08.2020 13:00:00 27,7 11,7 7 4 16 8 SE 1016,5 - 0,0
06.08.2020 12:00:00 26,9 15,0 6 3 16 9 ESE 1016,5 - 0,0
06.08.2020 11:00:00 22,6 17,1 11 6 21 11 NE 1016,6 30 0,0
06.08.2020 10:00:00 19,5 16,9 13 7 23 12 NE 1016,8 - 0,0
06.08.2020 09:00:00 17,6 16,6 14 7 23 12 NE 1016,6 - 0,0
06.08.2020 08:00:00 16,6 16,3 12 6 18 10 NE 1016,3 - 0,0
06.08.2020 07:00:00 16,5 16,0 14 7 21 12 NE 1016,1 - 0,0
06.08.2020 06:00:00 16,9 16,4 14 8 19 11 NE 1016,0 - 0,0
06.08.2020 05:00:00 17,2 16,7 12 7 16 9 NE 1016,0 - 0,2
06.08.2020 04:00:00 17,3 16,8 13 7 16 8 NNE 1016,1 - 0,0
06.08.2020 03:00:00 17,5 16,9 12 6 20 11 NNE 1016,2 - 0,0
06.08.2020 02:00:00 17,6 17,0 14 7 19 10 N 1016,4 25 0,0
06.08.2020 01:00:00 17,7 17,1 14 7 17 9 N 1016,3 - 0,0
06.08.2020 00:00:00 17,8 17,0 13 7 16 8 N 1016,4 - 0,0
05.08.2020 23:00:00 18,0 16,7 10 6 15 8 N 1016,4 25 0,0
05.08.2020 22:00:00 18,9 16,3 6 3 18 10 N 1016,1 - 0,0
05.08.2020 21:00:00 21,3 16,3 10 6 18 10 NNW 1015,7 - 0,0
05.08.2020 20:00:00 23,2 15,8 8 4 13 7 N 1015,5 30 0,0
05.08.2020 19:00:00 23,2 16,3 4 2 16 9 S 1015,5 - 0,0
05.08.2020 18:00:00 23,8 16,3 7 4 21 12 WSW 1015,8 - 0,0
05.08.2020 17:00:00 23,3 15,6 9 5 20 11 WSW 1016,0 30 0,0
05.08.2020 16:00:00 23,2 15,8 9 5 19 10 SSW 1016,4 - 0,0
05.08.2020 15:00:00 22,9 16,2 9 5 19 11 SSW 1016,6 - 0,0
05.08.2020 14:00:00 22,6 16,8 12 6 21 11 SSE 1016,6 25 0,0
05.08.2020 13:00:00 21,0 17,2 10 6 24 13 SSE 1016,5 - 0,0
05.08.2020 12:00:00 21,6 18,0 13 7 21 11 SE 1016,6 - 0,0
05.08.2020 11:00:00 20,0 17,4 9 5 21 11 SE 1016,6 25 0,0
05.08.2020 10:00:00 18,4 17,1 10 5 19 10 SE 1016,4 - 0,0
05.08.2020 09:00:00 18,2 17,7 8 4 16 8 SE 1016,4 - 0,0
05.08.2020 08:00:00 17,3 17,1 5 3 10 6 SE 1016,2 25 0,0
05.08.2020 07:00:00 15,2 15,0 7 4 10 5 SE 1016,1 - 0,0
05.08.2020 06:00:00 14,0 13,5 5 3 6 4 S 1016,0 - 0,0
05.08.2020 05:00:00 14,0 13,5 5 3 7 4 SSW 1016,0 - 0,0
05.08.2020 04:00:00 14,0 13,4 6 3 8 4 WSW 1016,5 - 0,0
05.08.2020 03:00:00 14,0 13,0 5 3 10 5 SSW 1016,8 - 0,0
05.08.2020 02:00:00 14,5 13,9 9 5 10 6 SW 1017,2 25 0,0
05.08.2020 01:00:00 14,2 13,4 9 5 9 5 SW 1017,4 - 0,0
05.08.2020 00:00:00 14,6 13,5 8 4 9 5 SW 1017,7 - 0,0
04.08.2020 23:00:00 15,3 13,5 3 2 6 3 WSW 1018,0 25 0,0
04.08.2020 22:00:00 17,6 13,5 4 2 10 5 WSW 1018,1 - 0,0
04.08.2020 21:00:00 21,2 14,8 6 3 16 9 WSW 1017,9 - 0,0
04.08.2020 20:00:00 22,1 14,5 7 4 17 9 WSW 1018,0 30 0,0
04.08.2020 19:00:00 22,1 15,0 10 5 18 10 SW 1018,2 - 0,0
04.08.2020 18:00:00 22,1 15,9 10 5 18 10 SSW 1018,5 - 0,0
04.08.2020 17:00:00 22,4 16,0 9 5 20 11 SSW 1019,0 25 0,0
04.08.2020 16:00:00 22,3 14,9 8 4 22 12 SSW 1019,3 - 0,0
04.08.2020 15:00:00 22,0 13,9 11 6 19 10 SSW 1019,7 - 0,0
04.08.2020 14:00:00 21,6 14,0 9 5 18 10 S 1019,9 25 0,0
04.08.2020 13:00:00 20,5 13,5 9 5 18 10 SSE 1020,0 - 0,0
04.08.2020 12:00:00 19,5 12,0 9 5 15 8 SE 1019,8 - 0,0
04.08.2020 11:00:00 19,3 11,8 6 4 17 9 ESE 1019,9 - 0,0
04.08.2020 10:00:00 18,4 12,4 10 5 17 9 E 1019,8 - 0,0
04.08.2020 09:00:00 16,2 12,4 10 5 16 9 ENE 1019,8 - 0,0
04.08.2020 08:00:00 12,6 11,5 9 5 14 7 ENE 1019,6 - 0,0
04.08.2020 07:00:00 11,8 9,9 11 6 14 8 ENE 1019,3 - 0,0
04.08.2020 06:00:00 13,1 11,2 12 6 14 7 NE 1019,2 - 0,0
04.08.2020 05:00:00 13,8 11,3 11 6 20 11 ENE 1019,1 20 0,0
04.08.2020 04:00:00 14,8 11,4 14 8 22 12 NE 1019,1 - 0,0
04.08.2020 03:00:00 15,2 11,4 14 8 22 12 NE 1019,3 - 0,0
04.08.2020 02:00:00 15,9 14,1 12 6 23 13 N 1019,2 20 0,0
04.08.2020 01:00:00 16,2 14,0 15 8 26 14 NNW 1019,4 - 0,0
04.08.2020 00:00:00 16,3 13,8 16 9 31 17 NW 1019,2 - 0,0
03.08.2020 23:00:00 16,8 14,3 18 10 29 16 NNW 1018,9 20 0,0
03.08.2020 22:00:00 17,1 13,6 17 9 34 19 NW 1018,3 - 0,0
03.08.2020 21:00:00 18,3 13,2 18 10 34 18 NW 1018,2 - 0,0
03.08.2020 20:00:00 19,3 12,6 18 10 39 21 WNW 1017,9 20 0,0
03.08.2020 19:00:00 20,2 12,7 19 11 35 19 WNW 1018,1 - 0,0
03.08.2020 18:00:00 20,5 12,7 17 9 35 19 WNW 1018,0 - 0,0
03.08.2020 17:00:00 21,0 12,7 14 7 30 16 W 1018,1 20 0,0
03.08.2020 16:00:00 20,8 11,4 16 8 32 17 NW 1018,5 - 0,0
03.08.2020 15:00:00 20,1 13,1 12 7 29 16 WNW 1018,9 - 0,0
03.08.2020 14:00:00 20,1 13,8 15 8 27 15 NNW 1019,1 - 0,0
03.08.2020 13:00:00 19,4 13,6 12 7 23 12 WNW 1019,1 - 0,0
03.08.2020 12:00:00 17,8 15,4 8 5 18 10 NNW 1019,1 - 0,0
03.08.2020 11:00:00 16,7 15,6 9 5 23 12 NNW 1019,1 5 0,4
03.08.2020 10:00:00 16,8 15,8 8 5 15 8 WNW 1019,0 - 0,4
03.08.2020 09:00:00 16,1 15,3 7 4 12 6 NW 1018,7 - 0,6
03.08.2020 08:00:00 15,5 14,5 8 4 18 10 NW 1018,5 5 2,4
03.08.2020 07:00:00 15,8 14,2 11 6 24 13 NNW 1018,3 - 0,0
03.08.2020 06:00:00 16,0 14,0 16 9 32 18 N 1018,2 - 0,2
03.08.2020 05:00:00 16,9 14,5 12 6 23 12 NNW 1018,3 20 0,0
03.08.2020 04:00:00 16,5 14,9 9 5 14 8 NW 1018,5 - 0,0
03.08.2020 03:00:00 16,7 14,5 10 5 23 12 NNW 1018,9 - 0,0
03.08.2020 02:00:00 16,4 14,2 15 8 25 13 NNW 1019,3 - 0,0
03.08.2020 01:00:00 16,0 14,4 13 7 20 11 NW 1019,5 - 0,0
03.08.2020 00:00:00 16,5 14,1 12 7 22 12 NW 1019,6 - 0,0
02.08.2020 23:00:00 17,2 14,1 15 8 29 16 NW 1020,0 20 0,0
02.08.2020 22:00:00 17,6 13,7 20 11 35 19 NW 1020,0 - 0,0
02.08.2020 21:00:00 18,1 13,2 20 11 36 19 NW 1020,0 - 0,0
02.08.2020 20:00:00 18,9 13,1 19 10 40 21 NW 1020,1 25 0,0
02.08.2020 19:00:00 19,5 12,3 19 10 38 20 WNW 1019,9 - 0,0
02.08.2020 18:00:00 20,7 13,2 16 9 38 20 NW 1020,4 - 0,0
02.08.2020 17:00:00 20,5 11,9 19 11 33 18 W 1020,6 25 0,0
02.08.2020 16:00:00 21,5 11,2 10 6 29 16 W 1020,9 - 0,0
02.08.2020 15:00:00 21,4 9,9 13 7 31 17 NNW 1021,3 - 0,0
02.08.2020 14:00:00 21,0 9,9 13 7 28 15 N 1021,4 - 0,0
02.08.2020 13:00:00 21,0 10,8 14 7 29 15 N 1021,6 - 0,0
02.08.2020 12:00:00 20,0 10,1 13 7 31 17 N 1022,0 - 0,0
02.08.2020 11:00:00 19,5 12,0 16 9 26 14 N 1021,7 20 0,0
02.08.2020 10:00:00 18,4 13,7 11 6 20 11 NNE 1021,7 - 0,0
02.08.2020 09:00:00 17,5 13,6 11 6 23 13 N 1021,8 - 0,0
02.08.2020 08:00:00 17,0 12,9 15 8 28 15 N 1021,5 20 0,0
02.08.2020 07:00:00 16,8 12,7 12 7 27 14 N 1021,1 - 0,0
02.08.2020 06:00:00 17,1 13,4 13 7 26 14 N 1020,8 - 0,0
02.08.2020 05:00:00 17,2 13,7 16 9 31 17 NNW 1020,6 20 0,0
02.08.2020 04:00:00 17,6 15,0 16 9 35 19 NNW 1020,4 - 0,0
02.08.2020 03:00:00 17,9 15,0 18 10 45 24 NW 1020,6 - 0,0
02.08.2020 02:00:00 18,0 14,1 23 13 43 23 NW 1020,7 20 0,0
02.08.2020 01:00:00 17,9 15,0 21 11 39 21 NW 1020,9 - 0,0
02.08.2020 00:00:00 17,7 14,8 19 10 36 19 NW 1020,9 - 0,0
01.08.2020 23:00:00 18,0 14,9 21 11 35 19 WNW 1020,9 20 0,0
01.08.2020 22:00:00 18,2 15,1 21 11 40 22 WNW 1020,7 - 0,0
01.08.2020 21:00:00 18,6 14,9 17 9 43 23 WNW 1020,5 - 0,0
01.08.2020 20:00:00 20,2 15,0 24 13 43 23 WNW 1020,5 20 0,0
01.08.2020 19:00:00 20,7 15,0 23 13 40 21 WNW 1020,3 - 0,0
01.08.2020 18:00:00 21,6 15,0 23 12 42 23 WNW 1020,7 - 0,0
01.08.2020 17:00:00 22,1 15,0 23 12 40 22 WNW 1020,6 20 0,0
01.08.2020 16:00:00 22,8 15,6 16 8 33 18 W 1020,3 - 0,0
01.08.2020 15:00:00 22,9 16,2 15 8 31 17 W 1020,4 - 0,0
01.08.2020 14:00:00 22,8 15,4 16 9 33 18 W 1020,2 20 0,0
01.08.2020 13:00:00 21,7 16,0 15 8 31 17 NNW 1020,2 - 0,0
01.08.2020 12:00:00 22,3 15,6 16 9 29 16 NW 1020,0 - 0,0
01.08.2020 11:00:00 21,4 16,1 13 7 28 15 NW 1019,6 15 0,0
01.08.2020 10:00:00 19,6 16,8 16 9 28 15 NNW 1019,1 - 0,0
01.08.2020 09:00:00 18,6 17,4 10 6 22 12 N 1018,9 - 0,0
01.08.2020 08:00:00 18,1 17,1 9 5 20 11 NNW 1018,8 10 0,0
01.08.2020 07:00:00 18,5 17,8 11 6 20 11 NW 1018,6 - 0,0
01.08.2020 06:00:00 18,6 18,1 13 7 29 15 NW 1018,2 - 0,2
01.08.2020 05:00:00 19,2 18,5 6 4 19 10 WSW 1018,0 7 0,0
01.08.2020 04:00:00 19,0 18,2 5 3 15 8 W 1018,0 - 0,0
01.08.2020 03:00:00 18,9 17,9 5 3 11 6 WSW 1018,4 - 0,0
01.08.2020 02:00:00 19,0 18,0 5 3 13 7 W 1018,7 10 0,0

tt = temperature
td = dewpoint
ff = wind speed
fx = gusts
dd = wind direction
ppp = reduced air pressure
vv = visibility
rr = precipitation

Next stations